This is the latest recevied weather packets stored in our database for station/object EA1CZ-10. If no packets are shown the sender has not sent any weather packets the latest 10 day(s).
| Time | Temp. | Humidity | Pressure | Rain* | Wind** | Luminosity | Snow |
|---|---|---|---|---|---|---|---|
| 1777513233 | 7.22° C | 68% | 1026.8 hPa | - | - | - | - |
| 1777511432 | 7.22° C | 68% | 1026.5 hPa | - | - | - | - |
| 1777509636 | 6.67° C | 68% | 1026.4 hPa | - | - | - | - |
| 1777507832 | 7.22° C | 68% | 1026.2 hPa | - | - | - | - |
| 1777506032 | 6.67° C | 68% | 1025.7 hPa | - | - | - | - |
| 1777504232 | 6.67° C | 67% | 1025.6 hPa | - | - | - | - |
| 1777502432 | 7.22° C | 67% | 1025.4 hPa | - | - | - | - |
| 1777500631 | 7.22° C | 67% | 1025.5 hPa | - | - | - | - |
| 1777498831 | 7.22° C | 67% | 1025.3 hPa | - | - | - | - |
| 1777497031 | 7.22° C | 67% | 1025 hPa | - | - | - | - |
| 1777495231 | 7.22° C | 67% | 1024.6 hPa | - | - | - | - |
| 1777493431 | 7.22° C | 67% | 1024.5 hPa | - | - | - | - |
| 1777491631 | 7.22° C | 67% | 1024 hPa | - | - | - | - |
| 1777489831 | 7.78° C | 67% | 1023.7 hPa | - | - | - | - |
| 1777488031 | 7.78° C | 67% | 1023.3 hPa | - | - | - | - |
| 1777486231 | 7.78° C | 66% | 1023.3 hPa | - | - | - | - |
| 1777484431 | 8.33° C | 66% | 1023 hPa | - | - | - | - |
| 1777482630 | 9.44° C | 66% | 1022.8 hPa | - | - | - | - |
| 1777480830 | 9.44° C | 66% | 1022.6 hPa | - | - | - | - |
| 1777479030 | 8.89° C | 66% | 1022.6 hPa | - | - | - | - |
| 1777477230 | 8.89° C | 66% | 1022.4 hPa | - | - | - | - |
| 1777475430 | 8.33° C | 66% | 1022.5 hPa | - | - | - | - |
| 1777473630 | 7.78° C | 66% | 1022.5 hPa | - | - | - | - |
| 1777471830 | 9.44° C | 65% | 1022.5 hPa | - | - | - | - |
| 1777470030 | 10° C | 65% | 1022.5 hPa | - | - | - | - |
* Rain since midnight (hover to see other rain measurements)
** Current wind speed in m/s (hover to see current wind gust speed)